Date String (YYYY-MM-DD hh:mm:ss) UTC,Instrument flags,absolute air pressure of the measurement (hPa),sample flow rate (lpm),inlet stack bypass flow (lpm),air temperature of the measurement (°C),ambient temperature measured by the external sensor (°C),aerosol sample conditioner tube jacket temperature (°C),OPC LED temperature (°C),internal box temperature (°C),relative humidity of the measurement (%),span deviation,mass concentration of particles derived from Lorenz-Mie calculation of OPC scattering (μg/m³),mass concentration of particles derived from Lorenz-Mie calculation of OPC scattering (μg/m³),mass concentration of particles derived from Lorenz-Mie calculation of OPC scattering (μg/m³)
DateTimeUTC,F1_M11,P_M11,Q1_M11,Q2_M11,T1_M11,T2_M11,T3_M11,T4_M11,T5_M11,U1_M11,ZSPAN_M11,X0_M11,X2_M11,X1_M11
2024-02-14 15:00:00,SystemResetWarning,0823.4,4.99,000.00,018.3,017.6,000.0,026.9,020.0,16.0,0000.0,0009.89,0004.55,0003.94
2024-02-14 15:01:00,SystemResetWarning,0823.4,5.00,000.00,018.3,017.6,000.0,026.8,020.0,15.9,0000.0,0010.42,0004.62,0003.96
2024-02-14 15:02:00,SystemResetWarning,0823.5,5.00,000.00,018.2,017.6,000.0,026.8,020.0,16.0,0000.0,0010.72,0004.63,0003.99
2024-02-14 15:03:00,SystemResetWarning,0823.6,5.00,000.00,018.3,017.6,000.0,026.9,020.0,16.0,0000.0,0010.60,0004.63,0003.99
2024-02-14 15:04:00,SystemResetWarning,0823.6,5.00,000.00,018.3,017.6,000.0,026.9,020.0,16.3,0000.0,0010.45,0004.63,0004.00
2024-02-14 15:05:00,SystemResetWarning,0823.7,5.01,000.00,018.3,017.6,000.0,026.9,020.0,16.5,0000.0,0010.37,0004.62,0003.99
2024-02-14 15:06:00,SystemResetWarning,0823.7,5.01,000.00,018.3,017.7,000.0,026.9,020.0,16.8,0000.0,0009.87,0004.58,0003.99
2024-02-14 15:07:00,SystemResetWarning,0823.6,5.01,000.00,018.3,017.7,000.0,026.8,020.0,17.0,0000.0,0009.80,0004.58,0003.99
2024-02-14 15:08:00,SystemResetWarning,0823.5,4.99,000.00,018.3,017.7,000.0,026.8,020.0,17.1,0000.0,0009.87,0004.60,0003.98
2024-02-14 15:09:00,SystemResetWarning,0823.5,4.98,000.00,018.3,017.7,000.0,026.8,020.0,17.2,0000.0,0009.66,0004.55,0003.96
2024-02-14 15:10:00,SystemResetWarning,0823.5,5.01,000.00,018.3,017.7,000.0,026.8,020.0,16.3,0000.0,0009.18,0004.54,0003.96
2024-02-14 15:11:00,SystemResetWarning,0823.5,5.01,000.00,018.3,017.7,000.0,026.8,020.0,16.0,0000.0,0008.76,0004.52,0003.95
2024-02-14 15:12:00,SystemResetWarning,0823.7,4.99,000.00,018.3,017.7,000.0,026.8,020.0,16.0,0000.0,0008.13,0004.46,0003.93
2024-02-14 15:13:00,SystemResetWarning,0823.7,5.00,000.00,018.3,017.7,000.0,026.8,020.0,16.2,0000.0,0007.96,0004.45,0003.92
2024-02-14 15:14:00,SystemResetWarning,0823.7,5.00,000.00,018.3,017.7,000.0,026.8,020.0,16.1,0000.0,0007.81,0004.44,0003.92
2024-02-14 15:15:00,SystemResetWarning,0823.8,5.00,000.00,018.3,017.8,000.0,026.8,020.0,16.1,0000.0,0007.77,0004.41,0003.92
2024-02-14 15:16:00,SystemResetWarning,0823.8,5.01,000.00,018.3,017.8,000.0,026.8,020.0,16.1,0000.0,0007.83,0004.39,0003.90
2024-02-14 15:17:00,SystemResetWarning,0823.8,5.00,000.00,018.3,017.8,000.0,026.8,020.0,16.2,0000.0,0007.85,0004.41,0003.91
2024-02-14 15:18:00,SystemResetWarning,0823.7,4.99,000.00,018.3,017.8,000.0,026.8,020.0,16.1,0000.0,0007.99,0004.43,0003.92
2024-02-14 15:19:00,SystemResetWarning,0823.7,5.01,000.00,018.3,017.8,000.0,026.8,020.0,16.1,0000.0,0008.51,0004.41,0003.94
2024-02-14 15:20:00,SystemResetWarning,0823.7,5.00,000.00,018.3,017.8,000.0,026.8,020.0,15.8,0000.0,0010.25,0004.47,0003.95
2024-02-14 15:21:00,SystemResetWarning,0823.7,5.00,000.00,018.3,017.8,000.0,026.8,020.0,15.8,0000.0,0010.37,0004.47,0003.95
2024-02-14 15:22:00,SystemResetWarning,0823.8,5.01,000.00,018.3,017.8,000.0,026.8,020.0,15.9,0000.0,0010.37,0004.50,0003.97
2024-02-14 15:23:00,SystemResetWarning,0823.8,4.99,000.00,018.3,017.8,000.0,026.8,020.0,16.0,0000.0,0010.88,0004.56,0003.98
2024-02-14 15:24:00,SystemResetWarning,0823.7,4.99,000.00,018.3,017.8,000.0,026.8,020.0,16.3,0000.0,0012.14,0004.58,0004.00
2024-02-14 15:25:00,SystemResetWarning,0823.7,5.01,000.00,018.3,017.8,000.0,026.8,020.0,16.4,0000.0,0012.22,0004.63,0004.02
2024-02-14 15:26:00,SystemResetWarning,0823.7,5.01,000.00,018.3,017.8,000.0,026.7,020.0,16.0,0000.0,0012.46,0004.67,0004.04
2024-02-14 15:27:00,SystemResetWarning,0823.8,5.00,000.00,018.3,017.8,000.0,026.7,020.0,16.5,0000.0,0012.41,0004.73,0004.08
2024-02-14 15:28:00,SystemResetWarning,0823.8,5.01,000.00,018.3,017.8,000.0,026.7,020.0,16.3,0000.0,0012.69,0004.76,0004.10
2024-02-14 15:29:00,SystemResetWarning,0823.8,5.00,000.00,018.3,017.8,000.0,026.7,020.0,16.5,0000.0,0012.88,0004.79,0004.12
2024-02-14 15:30:00,SystemResetWarning,0823.8,4.99,000.00,018.3,017.9,000.0,026.7,020.0,16.6,0000.0,0012.97,0004.82,0004.15
2024-02-14 15:31:00,SystemResetWarning,0823.8,5.00,000.00,018.3,017.9,000.0,026.7,020.0,17.0,0000.0,0011.72,0004.84,0004.17
2024-02-14 15:32:00,SystemResetWarning,0823.8,4.99,000.00,018.3,017.9,000.0,026.7,020.0,16.5,0000.0,0011.28,0004.85,0004.20
2024-02-14 15:33:00,SystemResetWarning,0823.8,5.00,000.00,018.3,017.9,000.0,026.7,020.0,17.0,0000.0,0011.31,0004.87,0004.23
2024-02-14 15:34:00,SystemResetWarning,0823.8,5.01,000.00,018.3,017.9,000.0,026.7,020.0,17.2,0000.0,0011.08,0004.88,0004.26
2024-02-14 15:35:00,SystemResetWarning,0823.8,5.01,000.00,018.3,017.9,000.0,026.7,020.0,16.8,0000.0,0009.76,0004.93,0004.31
2024-02-14 15:36:00,SystemResetWarning,0823.8,4.99,000.00,018.3,017.9,000.0,026.7,020.1,17.0,0000.0,0010.12,0004.98,0004.36
2024-02-14 15:37:00,SystemResetWarning,0823.9,5.00,000.00,018.3,017.9,000.0,026.7,020.1,16.9,0000.0,0010.51,0005.02,0004.39
2024-02-14 15:38:00,SystemResetWarning,0823.9,5.01,000.00,018.3,017.9,000.0,026.7,020.1,17.0,0000.0,0010.49,0004.99,0004.41
2024-02-14 15:39:00,SystemResetWarning,0823.9,4.99,000.00,018.3,017.9,000.0,026.7,020.1,17.0,0000.0,0010.68,0005.01,0004.44
2024-02-14 15:40:00,SystemResetWarning,0823.8,5.00,000.00,018.3,017.9,000.0,026.7,020.1,17.1,0000.0,0010.54,0005.00,0004.47
2024-02-14 15:41:00,SystemResetWarning,0823.8,5.00,000.00,018.3,017.9,000.0,026.7,020.1,16.7,0000.0,0009.98,0005.01,0004.48
2024-02-14 15:42:00,SystemResetWarning,0823.8,5.01,000.00,018.3,017.9,000.0,026.7,020.1,16.6,0000.0,0010.27,0005.03,0004.49
2024-02-14 15:43:00,SystemResetWarning,0823.8,4.98,000.00,018.3,017.9,000.0,026.8,020.1,16.8,0000.0,0010.28,0005.01,0004.49
2024-02-14 15:44:00,SystemResetWarning,0823.8,4.99,000.00,018.3,017.9,000.0,026.7,020.0,17.4,0000.0,0010.57,0004.98,0004.49
2024-02-14 15:45:00,SystemResetWarning,0823.8,5.01,000.00,018.3,017.9,000.0,026.7,020.0,18.0,0000.0,0010.80,0004.96,0004.48
2024-02-14 15:46:00,SystemResetWarning,0823.8,5.00,000.00,018.3,017.9,000.0,026.8,020.0,18.0,0000.0,0010.85,0004.91,0004.41
2024-02-14 15:47:00,SystemResetWarning,0823.8,5.00,000.00,018.3,017.9,000.0,026.7,020.0,18.4,0000.0,0010.63,0004.80,0004.32
2024-02-14 15:48:00,SystemResetWarning,0823.8,5.00,000.00,018.3,017.9,000.0,026.7,020.0,18.5,0000.0,0009.93,0004.65,0004.20
2024-02-14 15:49:00,SystemResetWarning,0823.8,5.00,000.00,018.3,017.9,000.0,026.7,020.0,18.4,0000.0,0009.53,0004.48,0004.04
2024-02-14 15:50:00,SystemResetWarning,0823.8,4.99,000.00,018.3,017.9,000.0,026.8,020.0,18.2,0000.0,0008.89,0004.29,0003.85
2024-02-14 15:51:00,SystemResetWarning,0823.8,5.00,000.00,018.3,017.9,000.0,026.8,020.0,17.7,0000.0,0008.52,0004.08,0003.66
2024-02-14 15:52:00,SystemResetWarning,0823.7,5.00,000.00,018.4,017.9,000.0,026.8,020.0,17.4,0000.0,0008.25,0003.86,0003.45
2024-02-14 15:53:00,SystemResetWarning,0823.7,5.00,000.00,018.4,017.9,000.0,026.8,020.0,18.2,0000.0,0007.49,0003.60,0003.22
2024-02-14 15:54:00,SystemResetWarning,0823.7,5.00,000.00,018.3,017.9,000.0,026.7,020.0,18.5,0000.0,0007.06,0003.38,0002.91
2024-02-14 15:55:00,SystemResetWarning,0823.7,5.00,000.00,018.3,017.9,000.0,026.7,020.0,17.9,0000.0,0005.88,0003.11,0002.47
2024-02-14 15:56:00,SystemResetWarning,0823.7,5.00,000.00,018.4,017.9,000.0,026.7,020.0,17.3,0000.0,0004.68,0002.64,0002.03
2024-02-14 15:57:00,SystemResetWarning,0823.8,5.01,000.00,018.4,017.9,000.0,026.7,020.0,17.5,0000.0,0003.91,0002.21,0001.67
2024-02-14 15:58:00,SystemResetWarning,0823.8,5.00,000.00,018.4,017.9,000.0,026.7,020.0,18.0,0000.0,0002.85,0001.85,0001.37
2024-02-14 15:59:00,SystemResetWarning,0823.7,5.00,000.00,018.4,017.9,000.0,026.7,020.0,17.2,0000.0,0002.50,0001.59,0001.14
